Time,TemperatureF,DewpointF,PressureIn,WindDirection,WindDirectionDegrees,WindSpeedMPH,WindSpeedGustMPH,Humidity,HourlyPrecipIn,Conditions,Clouds,dailyrainin,SoftwareType,DateUTC
2013-02-12 00:03:00,36.9,30.6,30.27,NNW,338,0.0,0.0,78,0.00,,---,0.00,VWS V14.01,2013-02-12 08:03:00,
2013-02-12 00:09:00,37.0,30.8,30.30,NNW,338,0.0,0.0,78,0.00,,---,0.00,VWS V14.01,2013-02-12 08:09:00,
2013-02-12 00:14:00,36.9,31.0,30.30,NNW,338,0.0,0.0,79,0.00,,---,0.00,VWS V14.01,2013-02-12 08:14:00,
2013-02-12 00:20:00,36.7,30.8,30.30,NNW,338,0.0,0.0,79,0.00,,---,0.00,VWS V14.01,2013-02-12 08:20:00,
2013-02-12 00:26:00,36.7,30.8,30.30,NNW,338,0.0,0.0,79,0.00,,---,0.00,VWS V14.01,2013-02-12 08:26:00,
2013-02-12 00:31:00,36.7,31.1,30.30,NNW,338,0.0,0.0,80,0.00,,---,0.00,VWS V14.01,2013-02-12 08:31:00,
2013-02-12 00:37:00,36.7,31.1,30.30,NNW,338,0.0,0.0,80,0.00,,---,0.00,VWS V14.01,2013-02-12 08:37:00,
2013-02-12 00:42:00,36.5,30.9,30.30,NNW,338,0.0,0.0,80,0.00,,---,0.00,VWS V14.01,2013-02-12 08:42:00,
2013-02-12 00:48:00,36.3,30.8,30.30,NNW,338,0.0,0.0,80,0.00,,---,0.00,VWS V14.01,2013-02-12 08:48:00,
2013-02-12 00:53:00,36.1,30.9,30.30,NNW,338,0.0,0.0,81,0.00,,---,0.00,VWS V14.01,2013-02-12 08:53:00,
2013-02-12 00:58:00,36.0,30.7,30.30,NNW,338,0.0,0.0,81,0.00,,---,0.00,VWS V14.01,2013-02-12 08:58:00,
2013-02-12 01:04:00,36.0,30.7,30.30,NNW,338,0.0,0.0,81,0.00,,---,0.00,VWS V14.01,2013-02-12 09:04:00,
2013-02-12 01:09:00,36.0,30.7,30.30,NNW,338,0.0,0.0,81,0.00,,---,0.00,VWS V14.01,2013-02-12 09:09:00,
2013-02-12 01:14:00,36.0,30.7,30.30,NNW,338,0.0,0.0,81,0.00,,---,0.00,VWS V14.01,2013-02-12 09:14:00,
2013-02-12 01:19:00,36.1,31.2,30.30,NNW,338,0.0,0.0,82,0.00,,---,0.00,VWS V14.01,2013-02-12 09:19:00,
2013-02-12 01:24:00,36.1,31.2,30.30,NNW,338,0.0,0.0,82,0.00,,---,0.00,VWS V14.01,2013-02-12 09:24:00,
2013-02-12 01:30:00,36.3,31.4,30.30,NNW,338,0.0,0.0,82,0.00,,---,0.00,VWS V14.01,2013-02-12 09:30:00,
2013-02-12 01:36:00,36.5,31.8,30.30,NNW,338,0.0,0.0,83,0.00,,---,0.00,VWS V14.01,2013-02-12 09:36:00,
2013-02-12 01:41:00,36.3,31.7,30.30,NNW,338,0.0,0.0,83,0.00,,---,0.00,VWS V14.01,2013-02-12 09:41:00,
2013-02-12 01:46:00,36.1,31.5,30.30,NNW,338,0.0,0.0,83,0.00,,---,0.00,VWS V14.01,2013-02-12 09:46:00,
2013-02-12 01:51:00,36.1,31.5,30.30,NNW,338,0.0,0.0,83,0.00,,---,0.00,VWS V14.01,2013-02-12 09:51:00,
2013-02-12 01:57:00,36.1,31.5,30.30,NNW,338,0.0,0.0,83,0.00,,---,0.00,VWS V14.01,2013-02-12 09:57:00,
2013-02-12 02:03:00,36.1,31.8,30.30,NNW,338,0.0,0.0,84,0.00,,---,0.00,VWS V14.01,2013-02-12 10:03:00,
2013-02-12 02:09:00,36.1,31.8,30.30,NNW,338,0.0,0.0,84,0.00,,---,0.00,VWS V14.01,2013-02-12 10:09:00,
2013-02-12 02:15:00,36.1,31.8,30.30,NNW,338,0.0,0.0,84,0.00,,---,0.00,VWS V14.01,2013-02-12 10:15:00,
2013-02-12 02:20:00,36.1,32.1,30.30,NNW,338,0.0,0.0,85,0.00,,---,0.00,VWS V14.01,2013-02-12 10:20:00,
2013-02-12 02:26:00,36.1,32.1,30.27,NNW,338,0.0,0.0,85,0.00,,---,0.00,VWS V14.01,2013-02-12 10:26:00,
2013-02-12 02:31:00,36.1,32.1,30.27,NNW,338,0.0,0.0,85,0.00,,---,0.00,VWS V14.01,2013-02-12 10:31:00,
2013-02-12 02:37:00,36.0,31.9,30.30,NNW,338,0.0,0.0,85,0.00,,---,0.00,VWS V14.01,2013-02-12 10:37:00,
2013-02-12 02:43:00,36.0,32.2,30.30,NNW,338,0.0,0.0,86,0.00,,---,0.00,VWS V14.01,2013-02-12 10:43:00,
2013-02-12 02:48:00,36.0,32.2,30.30,NNW,338,0.0,0.0,86,0.00,,---,0.00,VWS V14.01,2013-02-12 10:48:00,
2013-02-12 02:54:00,36.0,32.2,30.30,NNW,338,0.0,0.0,86,0.00,,---,0.00,VWS V14.01,2013-02-12 10:54:00,
2013-02-12 02:59:00,36.0,32.2,30.30,NNW,338,0.0,0.0,86,0.00,,---,0.00,VWS V14.01,2013-02-12 10:59:00,
2013-02-12 03:05:00,35.8,32.0,30.30,NNW,338,0.0,0.0,86,0.00,,---,0.00,VWS V14.01,2013-02-12 11:05:00,
2013-02-12 03:10:00,35.8,32.0,30.30,NNW,338,0.0,0.0,86,0.00,,---,0.00,VWS V14.01,2013-02-12 11:10:00,
2013-02-12 03:15:00,35.8,32.0,30.30,NNW,338,0.0,0.0,86,0.00,,---,0.00,VWS V14.01,2013-02-12 11:15:00,
2013-02-12 03:20:00,35.8,32.3,30.30,NNW,338,0.0,0.0,87,0.00,,---,0.00,VWS V14.01,2013-02-12 11:20:00,
2013-02-12 03:26:00,35.6,32.1,30.30,NNW,338,0.0,0.0,87,0.00,,---,0.00,VWS V14.01,2013-02-12 11:26:00,
2013-02-12 03:31:00,35.8,32.3,30.30,NNW,338,0.0,0.0,87,0.00,,---,0.00,VWS V14.01,2013-02-12 11:31:00,
2013-02-12 03:36:00,36.0,32.5,30.30,NNW,338,0.0,0.0,87,0.00,,---,0.00,VWS V14.01,2013-02-12 11:36:00,
2013-02-12 03:42:00,35.8,32.3,30.30,NNW,338,0.0,0.0,87,0.00,,---,0.00,VWS V14.01,2013-02-12 11:42:00,
2013-02-12 03:47:00,35.8,32.3,30.30,NNW,338,0.0,0.0,87,0.00,,---,0.00,VWS V14.01,2013-02-12 11:47:00,
2013-02-12 03:53:00,35.8,32.3,30.30,NNW,338,0.0,0.0,87,0.00,,---,0.00,VWS V14.01,2013-02-12 11:53:00,
2013-02-12 03:58:00,36.0,32.8,30.30,NNW,338,0.0,0.0,88,0.00,,---,0.00,VWS V14.01,2013-02-12 11:58:00,
2013-02-12 04:04:00,36.1,32.9,30.30,NNW,338,0.0,0.0,88,0.00,,---,0.00,VWS V14.01,2013-02-12 12:04:00,
2013-02-12 04:09:00,36.0,32.8,30.30,NNW,338,0.0,0.0,88,0.00,,---,0.00,VWS V14.01,2013-02-12 12:09:00,
2013-02-12 04:15:00,35.8,32.6,30.30,NNW,338,0.0,0.0,88,0.00,,---,0.00,VWS V14.01,2013-02-12 12:15:00,
2013-02-12 04:21:00,35.8,32.6,30.30,NNW,338,0.0,0.0,88,0.00,,---,0.00,VWS V14.01,2013-02-12 12:21:00,
2013-02-12 04:26:00,35.6,32.4,30.30,NNW,338,0.0,0.0,88,0.00,,---,0.00,VWS V14.01,2013-02-12 12:26:00,
2013-02-12 04:32:00,35.6,32.4,30.30,NNW,338,0.0,0.0,88,0.00,,---,0.00,VWS V14.01,2013-02-12 12:32:00,
2013-02-12 04:37:00,35.6,32.4,30.30,NNW,338,0.0,0.0,88,0.00,,---,0.00,VWS V14.01,2013-02-12 12:37:00,
2013-02-12 04:43:00,35.6,32.4,30.30,NNW,338,0.0,0.0,88,0.00,,---,0.00,VWS V14.01,2013-02-12 12:43:00,
2013-02-12 04:49:00,35.6,32.4,30.30,NNW,338,0.0,0.0,88,0.00,,---,0.00,VWS V14.01,2013-02-12 12:49:00,
2013-02-12 04:54:00,35.4,32.2,30.30,NNW,338,0.0,0.0,88,0.00,,---,0.00,VWS V14.01,2013-02-12 12:54:00,
2013-02-12 05:00:00,35.2,32.0,30.30,NNW,338,0.0,0.0,88,0.00,,---,0.00,VWS V14.01,2013-02-12 13:00:00,
2013-02-12 05:05:00,35.4,32.5,30.30,NNW,338,0.0,0.0,89,0.00,,---,0.00,VWS V14.01,2013-02-12 13:05:00,
2013-02-12 05:11:00,35.2,32.3,30.30,NNW,338,0.0,0.0,89,0.00,,---,0.00,VWS V14.01,2013-02-12 13:11:00,
2013-02-12 05:17:00,34.9,32.0,30.30,NNW,338,0.0,0.0,89,0.00,,---,0.00,VWS V14.01,2013-02-12 13:17:00,
2013-02-12 05:22:00,34.9,32.0,30.30,NNW,338,0.0,0.0,89,0.00,,---,0.00,VWS V14.01,2013-02-12 13:22:00,
2013-02-12 05:27:00,34.9,32.0,30.30,NNW,338,0.0,0.0,89,0.00,,---,0.00,VWS V14.01,2013-02-12 13:27:00,
2013-02-12 05:32:00,34.9,32.0,30.30,NNW,338,0.0,0.0,89,0.00,,---,0.00,VWS V14.01,2013-02-12 13:32:00,
2013-02-12 05:38:00,34.7,31.8,30.33,NNW,338,0.0,0.0,89,0.00,,---,0.00,VWS V14.01,2013-02-12 13:38:00,
2013-02-12 05:43:00,34.7,32.1,30.33,NNW,338,0.0,0.0,90,0.00,,---,0.00,VWS V14.01,2013-02-12 13:43:00,
2013-02-12 05:49:00,34.5,31.9,30.33,NNW,338,0.0,0.0,90,0.00,,---,0.00,VWS V14.01,2013-02-12 13:49:00,
2013-02-12 05:54:00,34.5,31.9,30.33,NNW,338,0.0,0.0,90,0.00,,---,0.00,VWS V14.01,2013-02-12 13:54:00,
2013-02-12 06:00:00,34.7,32.3,30.33,NNW,338,0.0,0.0,91,0.00,,---,0.00,VWS V14.01,2013-02-12 14:00:00,
2013-02-12 06:06:00,34.7,32.3,30.33,NNW,338,0.0,0.0,91,0.00,,---,0.00,VWS V14.01,2013-02-12 14:06:00,
2013-02-12 06:11:00,34.7,32.3,30.33,NNW,338,0.0,0.0,91,0.00,,---,0.00,VWS V14.01,2013-02-12 14:11:00,
2013-02-12 06:17:00,34.7,32.1,30.33,NNW,338,0.0,0.0,90,0.00,,---,0.00,VWS V14.01,2013-02-12 14:17:00,
2013-02-12 06:22:00,34.9,32.5,30.36,NNW,338,0.0,0.0,91,0.00,,---,0.00,VWS V14.01,2013-02-12 14:22:00,
2013-02-12 06:28:00,34.9,32.5,30.36,NNW,338,0.0,0.0,91,0.00,,---,0.00,VWS V14.01,2013-02-12 14:28:00,
2013-02-12 06:33:00,34.9,32.5,30.36,NNW,338,0.0,0.0,91,0.00,,---,0.00,VWS V14.01,2013-02-12 14:33:00,
2013-02-12 06:38:00,34.9,32.5,30.36,NNW,338,0.0,0.0,91,0.00,,---,0.00,VWS V14.01,2013-02-12 14:38:00,
2013-02-12 06:43:00,35.1,32.7,30.36,NNW,338,0.0,0.0,91,0.00,,---,0.00,VWS V14.01,2013-02-12 14:43:00,
2013-02-12 06:49:00,35.1,33.0,30.36,NNW,338,0.0,0.0,92,0.00,,---,0.00,VWS V14.01,2013-02-12 14:49:00,
2013-02-12 06:55:00,35.1,32.7,30.36,NNW,338,0.0,1.6,91,0.00,,---,0.00,VWS V14.01,2013-02-12 14:55:00,
2013-02-12 07:00:00,35.2,33.2,30.36,NNW,338,0.0,0.0,92,0.00,,---,0.00,VWS V14.01,2013-02-12 15:00:00,
2013-02-12 07:05:00,35.6,33.5,30.36,NNW,338,1.1,1.3,92,0.00,,---,0.00,VWS V14.01,2013-02-12 15:05:00,
2013-02-12 07:10:00,35.4,33.3,30.33,NNW,338,0.0,0.0,92,0.00,,---,0.00,VWS V14.01,2013-02-12 15:10:00,
2013-02-12 07:15:00,35.4,33.3,30.33,NNW,338,0.0,0.0,92,0.00,,---,0.00,VWS V14.01,2013-02-12 15:15:00,
2013-02-12 07:20:00,35.4,33.3,30.33,NNW,338,0.0,0.0,92,0.00,,---,0.00,VWS V14.01,2013-02-12 15:20:00,
2013-02-12 07:25:00,35.4,33.3,30.36,NNW,338,0.0,0.0,92,0.00,,---,0.00,VWS V14.01,2013-02-12 15:25:00,
2013-02-12 07:30:00,35.8,34.0,30.36,NNW,338,0.0,0.0,93,0.00,,---,0.00,VWS V14.01,2013-02-12 15:30:00,
2013-02-12 07:35:00,36.0,34.1,30.36,NNW,338,0.0,0.0,93,0.00,,---,0.00,VWS V14.01,2013-02-12 15:35:00,
2013-02-12 07:40:00,36.3,34.8,30.36,NNE,22,0.0,0.0,94,0.00,,---,0.00,VWS V14.01,2013-02-12 15:40:00,
2013-02-12 07:45:00,36.7,35.1,30.36,West,270,0.0,0.0,94,0.00,,---,0.00,VWS V14.01,2013-02-12 15:45:00,
2013-02-12 07:50:00,39.4,38.3,30.36,West,270,0.0,0.0,96,0.00,,---,0.00,VWS V14.01,2013-02-12 15:50:00,
2013-02-12 07:55:00,41.4,40.6,30.36,West,270,0.0,0.0,97,0.00,,---,0.00,VWS V14.01,2013-02-12 15:55:00,
2013-02-12 08:00:00,42.4,41.4,30.36,West,270,0.0,0.0,96,0.00,,---,0.00,VWS V14.01,2013-02-12 16:00:00,
2013-02-12 08:05:00,43.3,41.5,30.36,SW,225,0.0,0.0,93,0.00,,---,0.00,VWS V14.01,2013-02-12 16:05:00,
2013-02-12 08:10:00,44.6,42.1,30.39,SW,225,0.0,0.0,91,0.00,,---,0.00,VWS V14.01,2013-02-12 16:10:00,
2013-02-12 08:15:00,45.3,42.0,30.39,SW,225,0.0,0.0,88,0.00,,---,0.00,VWS V14.01,2013-02-12 16:15:00,
2013-02-12 08:20:00,46.0,42.4,30.39,SW,225,0.0,0.0,87,0.00,,---,0.00,VWS V14.01,2013-02-12 16:20:00,
2013-02-12 08:25:00,47.1,43.2,30.39,SW,225,0.0,0.0,86,0.00,,---,0.00,VWS V14.01,2013-02-12 16:25:00,
2013-02-12 08:30:00,48.0,44.0,30.39,SW,225,0.0,0.0,86,0.00,,---,0.00,VWS V14.01,2013-02-12 16:30:00,
2013-02-12 08:35:00,48.9,44.6,30.39,SW,225,0.0,0.0,85,0.00,,---,0.00,VWS V14.01,2013-02-12 16:35:00,
2013-02-12 08:40:00,49.6,44.4,30.39,SW,225,0.0,0.0,82,0.00,,---,0.00,VWS V14.01,2013-02-12 16:40:00,
2013-02-12 08:45:00,50.0,44.4,30.39,SW,225,1.3,1.3,81,0.00,,---,0.00,VWS V14.01,2013-02-12 16:45:00,
2013-02-12 08:50:00,50.4,44.1,30.39,NNE,22,1.6,2.5,79,0.00,,---,0.00,VWS V14.01,2013-02-12 16:50:00,
2013-02-12 08:55:00,51.3,44.0,30.39,ESE,112,0.0,0.0,76,0.00,,---,0.00,VWS V14.01,2013-02-12 16:55:00,
2013-02-12 09:00:00,51.8,42.7,30.39,NNW,338,0.0,0.0,71,0.00,,---,0.00,VWS V14.01,2013-02-12 17:00:00,
2013-02-12 09:05:00,52.7,42.8,30.39,NNW,338,0.0,0.0,69,0.00,,---,0.00,VWS V14.01,2013-02-12 17:05:00,
2013-02-12 09:10:00,53.6,43.7,30.39,NNW,338,1.3,1.3,69,0.00,,---,0.00,VWS V14.01,2013-02-12 17:10:00,
2013-02-12 09:15:00,54.3,43.2,30.39,SSW,202,0.0,0.0,66,0.00,,---,0.00,VWS V14.01,2013-02-12 17:15:00,
2013-02-12 09:20:00,55.0,42.7,30.39,NW,315,0.0,0.0,63,0.00,,---,0.00,VWS V14.01,2013-02-12 17:20:00,
2013-02-12 09:25:00,55.8,40.3,30.39,NNE,22,2.2,2.2,56,0.00,,---,0.00,VWS V14.01,2013-02-12 17:25:00,
2013-02-12 09:30:00,55.9,38.6,30.39,NNW,338,2.0,3.1,52,0.00,,---,0.00,VWS V14.01,2013-02-12 17:30:00,
2013-02-12 09:35:00,56.3,38.9,30.39,North,0,1.6,2.0,52,0.00,,---,0.00,VWS V14.01,2013-02-12 17:35:00,
2013-02-12 09:40:00,57.0,38.1,30.41,NW,315,2.0,2.2,49,0.00,,---,0.00,VWS V14.01,2013-02-12 17:40:00,
2013-02-12 09:45:00,57.7,38.7,30.41,North,0,2.0,2.2,49,0.00,,---,0.00,VWS V14.01,2013-02-12 17:45:00,
2013-02-12 09:50:00,58.1,38.5,30.41,North,0,0.0,0.0,48,0.00,,---,0.00,VWS V14.01,2013-02-12 17:50:00,
2013-02-12 09:55:00,58.8,39.7,30.41,NNE,22,0.0,0.9,49,0.00,,---,0.00,VWS V14.01,2013-02-12 17:55:00,
2013-02-12 10:00:00,59.9,39.6,30.41,NW,315,1.6,1.6,47,0.00,,---,0.00,VWS V14.01,2013-02-12 18:00:00,
2013-02-12 10:05:00,61.0,39.5,30.41,NNE,22,2.2,3.1,45,0.00,,---,0.00,VWS V14.01,2013-02-12 18:05:00,
2013-02-12 10:10:00,61.5,38.8,30.41,North,0,1.3,2.0,43,0.00,,---,0.00,VWS V14.01,2013-02-12 18:10:00,
2013-02-12 10:15:00,61.5,38.2,30.41,WSW,248,0.0,2.0,42,0.00,,---,0.00,VWS V14.01,2013-02-12 18:15:00,
2013-02-12 10:20:00,61.7,37.8,30.41,WSW,248,0.0,2.5,41,0.00,,---,0.00,VWS V14.01,2013-02-12 18:20:00,
2013-02-12 10:25:00,62.8,38.8,30.41,SSW,202,2.2,2.2,41,0.00,,---,0.00,VWS V14.01,2013-02-12 18:25:00,
2013-02-12 10:30:00,63.0,38.3,30.41,South,180,2.5,2.5,40,0.00,,---,0.00,VWS V14.01,2013-02-12 18:30:00,
2013-02-12 10:35:00,63.3,38.6,30.41,NNW,338,3.4,3.4,40,0.00,,---,0.00,VWS V14.01,2013-02-12 18:35:00,
2013-02-12 10:40:00,63.5,36.8,30.41,NNW,338,0.0,2.2,37,0.00,,---,0.00,VWS V14.01,2013-02-12 18:40:00,
2013-02-12 10:45:00,64.4,36.9,30.41,WNW,292,0.0,0.0,36,0.00,,---,0.00,VWS V14.01,2013-02-12 18:45:00,
2013-02-12 10:50:00,65.1,37.5,30.41,NNE,22,0.0,2.2,36,0.00,,---,0.00,VWS V14.01,2013-02-12 18:50:00,
2013-02-12 10:55:00,65.5,37.1,30.41,East,90,1.1,1.1,35,0.00,,---,0.00,VWS V14.01,2013-02-12 18:55:00,
2013-02-12 11:00:00,65.1,36.1,30.41,SW,225,0.0,2.0,34,0.00,,---,0.00,VWS V14.01,2013-02-12 19:00:00,
2013-02-12 11:05:00,65.5,37.1,30.41,WSW,248,2.5,2.5,35,0.00,,---,0.00,VWS V14.01,2013-02-12 19:05:00,
2013-02-12 11:10:00,66.0,37.6,30.41,SW,225,2.2,2.7,35,0.00,,---,0.00,VWS V14.01,2013-02-12 19:10:00,
2013-02-12 11:15:00,65.8,36.0,30.41,SSW,202,1.6,3.8,33,0.00,,---,0.00,VWS V14.01,2013-02-12 19:15:00,
2013-02-12 11:20:00,66.0,36.9,30.41,SSW,202,0.9,2.0,34,0.00,,---,0.00,VWS V14.01,2013-02-12 19:20:00,
2013-02-12 11:25:00,66.7,37.5,30.41,South,180,0.9,2.0,34,0.00,,---,0.00,VWS V14.01,2013-02-12 19:25:00,
2013-02-12 11:30:00,66.9,36.1,30.41,SW,225,1.3,5.8,32,0.00,,---,0.00,VWS V14.01,2013-02-12 19:30:00,
2013-02-12 11:35:00,67.3,37.2,30.41,SSW,202,4.0,4.0,33,0.00,,---,0.00,VWS V14.01,2013-02-12 19:35:00,
2013-02-12 11:40:00,67.3,34.8,30.41,WSW,248,2.5,3.8,30,0.00,,---,0.00,VWS V14.01,2013-02-12 19:40:00,
2013-02-12 11:45:00,67.1,36.3,30.41,NW,315,2.9,3.8,32,0.00,,---,0.00,VWS V14.01,2013-02-12 19:45:00,
2013-02-12 11:50:00,67.5,36.6,30.41,NW,315,3.8,3.8,32,0.00,,---,0.00,VWS V14.01,2013-02-12 19:50:00,
2013-02-12 11:55:00,67.3,37.2,30.39,WNW,292,6.0,6.0,33,0.00,,---,0.00,VWS V14.01,2013-02-12 19:55:00,
2013-02-12 12:00:00,65.7,36.6,30.39,WSW,248,3.1,5.8,34,0.00,,---,0.00,VWS V14.01,2013-02-12 20:00:00,
2013-02-12 12:05:00,66.2,36.3,30.39,WSW,248,4.3,5.8,33,0.00,,---,0.00,VWS V14.01,2013-02-12 20:05:00,
2013-02-12 12:10:00,65.3,36.2,30.39,WSW,248,1.6,3.8,34,0.00,,---,0.00,VWS V14.01,2013-02-12 20:10:00,
2013-02-12 12:15:00,65.1,36.1,30.39,SSW,202,5.4,5.4,34,0.00,,---,0.00,VWS V14.01,2013-02-12 20:15:00,
2013-02-12 12:20:00,66.2,37.0,30.39,West,270,0.9,4.3,34,0.00,,---,0.00,VWS V14.01,2013-02-12 20:20:00,
2013-02-12 12:25:00,66.2,37.0,30.39,WSW,248,3.1,4.0,34,0.00,,---,0.00,VWS V14.01,2013-02-12 20:25:00,
2013-02-12 12:30:00,65.8,36.7,30.39,South,180,2.9,3.6,34,0.00,,---,0.00,VWS V14.01,2013-02-12 20:30:00,
2013-02-12 12:35:00,66.4,36.4,30.39,SW,225,4.9,4.9,33,0.00,,---,0.00,VWS V14.01,2013-02-12 20:35:00,
2013-02-12 12:40:00,67.1,37.1,30.39,SE,135,1.6,3.1,33,0.00,,---,0.00,VWS V14.01,2013-02-12 20:40:00,
2013-02-12 12:45:00,67.8,37.7,30.39,WSW,248,3.4,4.3,33,0.00,,---,0.00,VWS V14.01,2013-02-12 20:45:00,
2013-02-12 12:50:00,67.3,37.2,30.39,WSW,248,2.9,3.6,33,0.00,,---,0.00,VWS V14.01,2013-02-12 20:50:00,
2013-02-12 12:55:00,67.1,37.1,30.39,SSW,202,3.4,5.6,33,0.00,,---,0.00,VWS V14.01,2013-02-12 20:55:00,
2013-02-12 13:00:00,67.3,37.2,30.39,South,180,1.6,3.8,33,0.00,,---,0.00,VWS V14.01,2013-02-12 21:00:00,
2013-02-12 13:05:00,67.5,37.4,30.39,West,270,2.7,4.9,33,0.00,,---,0.00,VWS V14.01,2013-02-12 21:05:00,
2013-02-12 13:10:00,67.1,37.1,30.39,WSW,248,1.6,4.0,33,0.00,,---,0.00,VWS V14.01,2013-02-12 21:10:00,
2013-02-12 13:15:00,66.4,36.4,30.39,NW,315,3.4,3.6,33,0.00,,---,0.00,VWS V14.01,2013-02-12 21:15:00,
2013-02-12 13:20:00,67.3,38.0,30.39,ESE,112,4.0,4.0,34,0.00,,---,0.00,VWS V14.01,2013-02-12 21:20:00,
2013-02-12 13:25:00,68.0,37.8,30.39,SW,225,2.7,2.7,33,0.00,,---,0.00,VWS V14.01,2013-02-12 21:25:00,
2013-02-12 13:30:00,67.8,38.5,30.39,SSW,202,2.9,3.8,34,0.00,,---,0.00,VWS V14.01,2013-02-12 21:30:00,
2013-02-12 13:36:00,68.9,39.4,30.39,WSW,248,1.1,2.7,34,0.00,,---,0.00,VWS V14.01,2013-02-12 21:36:00,
2013-02-12 13:41:00,69.4,39.1,30.36,NNW,338,2.9,2.9,33,0.00,,---,0.00,VWS V14.01,2013-02-12 21:41:00,
2013-02-12 13:46:00,70.0,38.8,30.36,SSW,202,3.6,3.6,32,0.00,,---,0.00,VWS V14.01,2013-02-12 21:46:00,
2013-02-12 13:51:00,69.6,39.3,30.36,NNW,338,0.0,0.0,33,0.00,,---,0.00,VWS V14.01,2013-02-12 21:51:00,
2013-02-12 13:57:00,69.6,38.5,30.36,ENE,68,3.4,3.4,32,0.00,,---,0.00,VWS V14.01,2013-02-12 21:57:00,
2013-02-12 14:02:00,70.0,38.8,30.36,WNW,292,0.0,1.3,32,0.00,,---,0.00,VWS V14.01,2013-02-12 22:02:00,
2013-02-12 14:07:00,70.0,38.8,30.33,NW,315,2.2,4.7,32,0.00,,---,0.00,VWS V14.01,2013-02-12 22:07:00,
2013-02-12 14:12:00,69.6,38.5,30.33,SSE,158,2.5,3.8,32,0.00,,---,0.00,VWS V14.01,2013-02-12 22:12:00,
2013-02-12 14:18:00,69.6,38.5,30.33,SSW,202,2.0,2.9,32,0.00,,---,0.00,VWS V14.01,2013-02-12 22:18:00,
2013-02-12 14:23:00,70.3,39.1,30.36,WSW,248,1.1,1.3,32,0.00,,---,0.00,VWS V14.01,2013-02-12 22:23:00,
2013-02-12 14:28:00,70.7,38.6,30.36,ESE,112,2.2,3.4,31,0.00,,---,0.00,VWS V14.01,2013-02-12 22:28:00,
2013-02-12 14:33:00,71.4,39.2,30.36,SSW,202,0.0,2.9,31,0.00,,---,0.00,VWS V14.01,2013-02-12 22:33:00,
2013-02-12 14:39:00,70.3,36.6,30.33,WSW,248,1.3,2.2,29,0.00,,---,0.00,VWS V14.01,2013-02-12 22:39:00,
2013-02-12 14:44:00,69.8,35.3,30.33,WSW,248,2.9,4.9,28,0.00,,---,0.00,VWS V14.01,2013-02-12 22:44:00,
2013-02-12 14:49:00,69.8,35.3,30.33,North,0,3.6,3.8,28,0.00,,---,0.00,VWS V14.01,2013-02-12 22:49:00,
2013-02-12 14:54:00,70.2,35.6,30.36,NE,45,2.9,2.9,28,0.00,,---,0.00,VWS V14.01,2013-02-12 22:54:00,
2013-02-12 15:00:00,70.3,36.6,30.36,NNW,338,0.0,2.0,29,0.00,,---,0.00,VWS V14.01,2013-02-12 23:00:00,
2013-02-12 15:06:00,69.3,33.9,30.36,WSW,248,3.8,5.4,27,0.00,,---,0.00,VWS V14.01,2013-02-12 23:06:00,
2013-02-12 15:11:00,68.4,33.1,30.33,SW,225,2.5,2.5,27,0.00,,---,0.00,VWS V14.01,2013-02-12 23:11:00,
2013-02-12 15:16:00,68.4,33.1,30.33,SW,225,2.7,3.4,27,0.00,,---,0.00,VWS V14.01,2013-02-12 23:16:00,
2013-02-12 15:21:00,68.9,34.5,30.33,WSW,248,2.7,3.1,28,0.00,,---,0.00,VWS V14.01,2013-02-12 23:21:00,
2013-02-12 15:26:00,68.5,34.2,30.36,WSW,248,3.1,3.6,28,0.00,,---,0.00,VWS V14.01,2013-02-12 23:26:00,
2013-02-12 15:31:00,69.1,34.6,30.36,NNW,338,3.1,3.4,28,0.00,,---,0.00,VWS V14.01,2013-02-12 23:31:00,
2013-02-12 15:36:00,69.3,33.9,30.36,WSW,248,1.6,2.9,27,0.00,,---,0.00,VWS V14.01,2013-02-12 23:36:00,
2013-02-12 15:42:00,69.1,34.6,30.36,West,270,2.0,2.2,28,0.00,,---,0.00,VWS V14.01,2013-02-12 23:42:00,
2013-02-12 15:47:00,68.7,33.4,30.36,SW,225,3.1,3.1,27,0.00,,---,0.00,VWS V14.01,2013-02-12 23:47:00,
2013-02-12 15:52:00,68.2,33.0,30.36,WSW,248,3.4,3.4,27,0.00,,---,0.00,VWS V14.01,2013-02-12 23:52:00,
2013-02-12 15:57:00,67.8,33.5,30.36,SW,225,3.1,3.1,28,0.00,,---,0.00,VWS V14.01,2013-02-12 23:57:00,
2013-02-12 16:03:00,67.5,34.1,30.36,SW,225,2.5,3.1,29,0.00,,---,0.00,VWS V14.01,2013-02-13 00:03:00,
2013-02-12 16:08:00,67.3,34.0,30.36,North,0,1.6,2.2,29,0.00,,---,0.00,VWS V14.01,2013-02-13 00:08:00,
2013-02-12 16:13:00,67.3,34.0,30.36,West,270,1.6,2.5,29,0.00,,---,0.00,VWS V14.01,2013-02-13 00:13:00,
2013-02-12 16:18:00,67.6,34.3,30.36,NNW,338,3.4,3.6,29,0.00,,---,0.00,VWS V14.01,2013-02-13 00:18:00,
2013-02-12 16:24:00,67.6,34.3,30.36,West,270,1.1,3.6,29,0.00,,---,0.00,VWS V14.01,2013-02-13 00:24:00,
2013-02-12 16:29:00,67.8,34.4,30.36,NNW,338,0.0,2.7,29,0.00,,---,0.00,VWS V14.01,2013-02-13 00:29:00,
2013-02-12 16:34:00,68.0,34.6,30.36,SW,225,0.0,0.0,29,0.00,,---,0.00,VWS V14.01,2013-02-13 00:34:00,
2013-02-12 16:39:00,67.5,35.0,30.36,WSW,248,0.0,0.0,30,0.00,,---,0.00,VWS V14.01,2013-02-13 00:39:00,
2013-02-12 16:44:00,67.5,35.8,30.36,SSW,202,0.9,2.0,31,0.00,,---,0.00,VWS V14.01,2013-02-13 00:44:00,
2013-02-12 16:49:00,67.3,35.6,30.36,WSW,248,2.0,2.0,31,0.00,,---,0.00,VWS V14.01,2013-02-13 00:49:00,
2013-02-12 16:54:00,66.7,35.2,30.36,North,0,0.0,2.2,31,0.00,,---,0.00,VWS V14.01,2013-02-13 00:54:00,
2013-02-12 16:59:00,65.7,35.8,30.36,NW,315,1.6,1.6,33,0.00,,---,0.00,VWS V14.01,2013-02-13 00:59:00,
2013-02-12 17:04:00,64.2,34.5,30.36,WNW,292,0.0,0.0,33,0.00,,---,0.00,VWS V14.01,2013-02-13 01:04:00,
2013-02-12 17:09:00,61.9,33.2,30.36,WSW,248,0.0,0.0,34,0.00,,---,0.00,VWS V14.01,2013-02-13 01:09:00,
2013-02-12 17:14:00,59.9,32.9,30.36,SW,225,0.0,0.0,36,0.00,,---,0.00,VWS V14.01,2013-02-13 01:14:00,
2013-02-12 17:20:00,58.6,33.1,30.36,WNW,292,2.9,3.1,38,0.00,,---,0.00,VWS V14.01,2013-02-13 01:20:00,
2013-02-12 17:25:00,57.6,32.8,30.36,NW,315,1.1,1.1,39,0.00,,---,0.00,VWS V14.01,2013-02-13 01:25:00,
2013-02-12 17:30:00,56.7,33.8,30.36,NW,315,1.6,2.2,42,0.00,,---,0.00,VWS V14.01,2013-02-13 01:30:00,
2013-02-12 17:35:00,55.9,33.8,30.36,WNW,292,2.5,2.9,43,0.00,,---,0.00,VWS V14.01,2013-02-13 01:35:00,
2013-02-12 17:41:00,55.0,34.7,30.36,WNW,292,2.2,3.1,46,0.00,,---,0.00,VWS V14.01,2013-02-13 01:41:00,
2013-02-12 17:46:00,54.3,34.0,30.36,North,0,0.0,0.0,46,0.00,,---,0.00,VWS V14.01,2013-02-13 01:46:00,
2013-02-12 17:51:00,53.6,33.9,30.36,ENE,68,1.1,2.0,47,0.00,,---,0.00,VWS V14.01,2013-02-13 01:51:00,
2013-02-12 17:56:00,53.2,34.1,30.36,North,0,0.0,0.0,48,0.00,,---,0.00,VWS V14.01,2013-02-13 01:56:00,
2013-02-12 18:01:00,52.7,34.1,30.36,ENE,68,0.0,0.0,49,0.00,,---,0.00,VWS V14.01,2013-02-13 02:01:00,
2013-02-12 18:06:00,51.8,33.8,30.36,WNW,292,0.0,0.0,50,0.00,,---,0.00,VWS V14.01,2013-02-13 02:06:00,
2013-02-12 18:11:00,51.3,33.3,30.36,North,0,0.0,0.0,50,0.00,,---,0.00,VWS V14.01,2013-02-13 02:11:00,
2013-02-12 18:16:00,50.9,33.4,30.36,NNE,22,0.0,0.0,51,0.00,,---,0.00,VWS V14.01,2013-02-13 02:16:00,
2013-02-12 18:21:00,50.5,33.6,30.36,North,0,0.0,0.0,52,0.00,,---,0.00,VWS V14.01,2013-02-13 02:21:00,
2013-02-12 18:26:00,50.2,33.2,30.36,North,0,0.0,0.0,52,0.00,,---,0.00,VWS V14.01,2013-02-13 02:26:00,
2013-02-12 18:31:00,49.8,33.9,30.36,North,0,1.3,1.3,54,0.00,,---,0.00,VWS V14.01,2013-02-13 02:31:00,
2013-02-12 18:37:00,49.3,33.8,30.36,NNW,338,0.0,1.1,55,0.00,,---,0.00,VWS V14.01,2013-02-13 02:37:00,
2013-02-12 18:42:00,48.9,33.9,30.36,NNW,338,0.0,0.0,56,0.00,,---,0.00,VWS V14.01,2013-02-13 02:42:00,
2013-02-12 18:47:00,48.9,34.4,30.36,NNE,22,0.0,0.0,57,0.00,,---,0.00,VWS V14.01,2013-02-13 02:47:00,
2013-02-12 18:52:00,48.6,34.0,30.36,NNW,338,0.0,0.0,57,0.00,,---,0.00,VWS V14.01,2013-02-13 02:52:00,
2013-02-12 18:57:00,48.0,34.0,30.36,NNW,338,0.0,0.0,58,0.00,,---,0.00,VWS V14.01,2013-02-13 02:57:00,
2013-02-12 19:03:00,47.3,33.7,30.36,NNW,338,0.0,0.0,59,0.00,,---,0.00,VWS V14.01,2013-02-13 03:03:00,
2013-02-12 19:08:00,46.8,33.2,30.36,NNW,338,0.0,0.0,59,0.00,,---,0.00,VWS V14.01,2013-02-13 03:08:00,
2013-02-12 19:13:00,46.2,33.1,30.36,NNW,338,0.0,0.0,60,0.00,,---,0.00,VWS V14.01,2013-02-13 03:13:00,
2013-02-12 19:18:00,45.5,33.2,30.36,NNW,338,0.0,0.0,62,0.00,,---,0.00,VWS V14.01,2013-02-13 03:18:00,
2013-02-12 19:23:00,45.3,32.7,30.33,NNW,338,0.0,1.1,61,0.00,,---,0.00,VWS V14.01,2013-02-13 03:23:00,
2013-02-12 19:28:00,45.1,33.3,30.33,North,0,0.0,0.0,63,0.00,,---,0.00,VWS V14.01,2013-02-13 03:28:00,
2013-02-12 19:33:00,45.0,33.1,30.33,NNW,338,0.0,0.0,63,0.00,,---,0.00,VWS V14.01,2013-02-13 03:33:00,
2013-02-12 19:38:00,44.6,33.2,30.33,NNW,338,0.0,0.0,64,0.00,,---,0.00,VWS V14.01,2013-02-13 03:38:00,
2013-02-12 19:43:00,44.1,32.7,30.33,NNW,338,0.0,0.0,64,0.00,,---,0.00,VWS V14.01,2013-02-13 03:43:00,
2013-02-12 19:48:00,43.7,32.7,30.33,NNW,338,0.0,0.0,65,0.00,,---,0.00,VWS V14.01,2013-02-13 03:48:00,
2013-02-12 19:53:00,43.5,32.2,30.33,NNW,338,0.0,0.0,64,0.00,,---,0.00,VWS V14.01,2013-02-13 03:53:00,
2013-02-12 19:59:00,43.2,32.6,30.33,NNW,338,0.0,0.0,66,0.00,,---,0.00,VWS V14.01,2013-02-13 03:59:00,
2013-02-12 20:05:00,42.8,32.6,30.33,NNW,338,0.0,0.0,67,0.00,,---,0.00,VWS V14.01,2013-02-13 04:05:00,
2013-02-12 20:10:00,42.4,32.3,30.33,NNW,338,0.0,0.0,67,0.00,,---,0.00,VWS V14.01,2013-02-13 04:10:00,
2013-02-12 20:15:00,42.3,32.5,30.33,North,0,0.0,0.0,68,0.00,,---,0.00,VWS V14.01,2013-02-13 04:15:00,
2013-02-12 20:20:00,42.3,32.1,30.33,North,0,0.0,0.0,67,0.00,,---,0.00,VWS V14.01,2013-02-13 04:20:00,
2013-02-12 20:26:00,42.1,32.3,30.33,North,0,0.0,0.0,68,0.00,,---,0.00,VWS V14.01,2013-02-13 04:26:00,
2013-02-12 20:31:00,41.9,32.1,30.33,North,0,0.0,0.0,68,0.00,,---,0.00,VWS V14.01,2013-02-13 04:31:00,
2013-02-12 20:36:00,41.7,32.3,30.33,North,0,0.0,0.0,69,0.00,,---,0.00,VWS V14.01,2013-02-13 04:36:00,
2013-02-12 20:41:00,41.5,32.1,30.33,North,0,0.0,0.0,69,0.00,,---,0.00,VWS V14.01,2013-02-13 04:41:00,
2013-02-12 20:47:00,41.5,32.5,30.33,NNW,338,0.0,0.0,70,0.00,,---,0.00,VWS V14.01,2013-02-13 04:47:00,
2013-02-12 20:52:00,41.4,32.3,30.36,NNW,338,0.0,0.0,70,0.00,,---,0.00,VWS V14.01,2013-02-13 04:52:00,
2013-02-12 20:57:00,41.2,31.8,30.36,NNW,338,0.0,0.0,69,0.00,,---,0.00,VWS V14.01,2013-02-13 04:57:00,
2013-02-12 21:00:00,41.2,32.2,30.36,NNW,338,0.0,0.0,70,0.00,,---,0.00,VWS V14.01,2013-02-13 05:00:00,
2013-02-12 21:01:00,41.2,32.2,30.36,NNW,338,0.0,0.0,70,0.00,,---,0.00,VWS V14.01,2013-02-13 05:01:00,
2013-02-12 21:02:00,41.2,32.2,30.36,NNW,338,0.0,0.0,70,0.00,,---,0.00,VWS V14.01,2013-02-13 05:02:00,
2013-02-12 21:06:00,41.2,32.5,30.36,NNW,338,0.9,2.7,71,0.00,,---,0.00,VWS V14.01,2013-02-13 05:06:00,
2013-02-12 21:12:00,41.9,33.5,30.36,NNW,338,0.0,0.0,72,0.00,,---,0.00,VWS V14.01,2013-02-13 05:12:00,
2013-02-12 21:17:00,41.7,33.0,30.36,NNW,338,0.0,0.0,71,0.00,,---,0.00,VWS V14.01,2013-02-13 05:17:00,
2013-02-12 21:22:00,41.4,32.7,30.36,NNW,338,0.0,0.0,71,0.00,,---,0.00,VWS V14.01,2013-02-13 05:22:00,
2013-02-12 21:27:00,41.2,32.5,30.36,NNW,338,0.0,0.0,71,0.00,,---,0.00,VWS V14.01,2013-02-13 05:27:00,
2013-02-12 21:33:00,41.0,32.7,30.36,West,270,0.0,0.0,72,0.00,,---,0.00,VWS V14.01,2013-02-13 05:33:00,
2013-02-12 21:38:00,41.0,32.3,30.36,West,270,0.0,0.0,71,0.00,,---,0.00,VWS V14.01,2013-02-13 05:38:00,
2013-02-12 21:43:00,40.8,32.5,30.36,North,0,0.0,0.0,72,0.00,,---,0.00,VWS V14.01,2013-02-13 05:43:00,
2013-02-12 21:48:00,40.6,32.7,30.36,NNW,338,0.0,0.0,73,0.00,,---,0.00,VWS V14.01,2013-02-13 05:48:00,
2013-02-12 21:53:00,40.6,32.7,30.36,NNW,338,0.0,0.0,73,0.00,,---,0.00,VWS V14.01,2013-02-13 05:53:00,
2013-02-12 21:58:00,40.5,32.5,30.36,NNW,338,0.0,0.0,73,0.00,,---,0.00,VWS V14.01,2013-02-13 05:58:00,
2013-02-12 22:04:00,40.5,32.5,30.36,North,0,0.0,0.0,73,0.00,,---,0.00,VWS V14.01,2013-02-13 06:04:00,
2013-02-12 22:09:00,40.3,32.3,30.36,North,0,0.0,0.0,73,0.00,,---,0.00,VWS V14.01,2013-02-13 06:09:00,
2013-02-12 22:15:00,40.1,32.2,30.36,NNW,338,0.0,0.0,73,0.00,,---,0.00,VWS V14.01,2013-02-13 06:15:00,
2013-02-12 22:20:00,39.9,32.0,30.36,NNW,338,0.0,0.0,73,0.00,,---,0.00,VWS V14.01,2013-02-13 06:20:00,
2013-02-12 22:25:00,39.7,32.1,30.36,NNW,338,0.0,0.0,74,0.00,,---,0.00,VWS V14.01,2013-02-13 06:25:00,
2013-02-12 22:31:00,39.4,31.5,30.36,NNW,338,0.0,0.0,73,0.00,,---,0.00,VWS V14.01,2013-02-13 06:31:00,
2013-02-12 22:36:00,39.2,31.6,30.36,NNW,338,0.0,0.0,74,0.00,,---,0.00,VWS V14.01,2013-02-13 06:36:00,
2013-02-12 22:41:00,39.0,31.5,30.39,NNW,338,0.0,0.0,74,0.00,,---,0.00,VWS V14.01,2013-02-13 06:41:00,
2013-02-12 22:46:00,39.0,31.8,30.39,NNW,338,0.0,0.0,75,0.00,,---,0.00,VWS V14.01,2013-02-13 06:46:00,
2013-02-12 22:51:00,38.8,31.6,30.39,NNW,338,0.0,0.0,75,0.00,,---,0.00,VWS V14.01,2013-02-13 06:51:00,
2013-02-12 22:57:00,38.8,31.6,30.36,NW,315,0.0,0.0,75,0.00,,---,0.00,VWS V14.01,2013-02-13 06:57:00,
2013-02-12 23:02:00,38.7,31.4,30.36,NNW,338,0.0,0.0,75,0.00,,---,0.00,VWS V14.01,2013-02-13 07:02:00,
2013-02-12 23:08:00,38.8,31.9,30.39,North,0,1.6,2.0,76,0.00,,---,0.00,VWS V14.01,2013-02-13 07:08:00,
2013-02-12 23:14:00,39.0,32.4,30.39,NNW,338,0.0,0.0,77,0.00,,---,0.00,VWS V14.01,2013-02-13 07:14:00,
2013-02-12 23:19:00,38.8,31.9,30.39,NNW,338,0.0,0.0,76,0.00,,---,0.00,VWS V14.01,2013-02-13 07:19:00,
2013-02-12 23:25:00,38.7,31.8,30.39,NNW,338,0.0,0.0,76,0.00,,---,0.00,VWS V14.01,2013-02-13 07:25:00,
2013-02-12 23:30:00,38.5,31.6,30.39,NNW,338,0.0,0.0,76,0.00,,---,0.00,VWS V14.01,2013-02-13 07:30:00,
2013-02-12 23:35:00,38.1,31.6,30.39,NNW,338,0.0,0.0,77,0.00,,---,0.00,VWS V14.01,2013-02-13 07:35:00,
2013-02-12 23:40:00,38.1,31.6,30.39,NNE,22,0.0,0.0,77,0.00,,---,0.00,VWS V14.01,2013-02-13 07:40:00,
2013-02-12 23:46:00,38.1,31.6,30.39,NNW,338,0.0,0.0,77,0.00,,---,0.00,VWS V14.01,2013-02-13 07:46:00,
2013-02-12 23:51:00,38.1,31.6,30.39,NNW,338,0.0,0.0,77,0.00,,---,0.00,VWS V14.01,2013-02-13 07:51:00,
2013-02-12 23:56:00,37.9,31.7,30.39,NNW,338,0.0,0.0,78,0.00,,---,0.00,VWS V14.01,2013-02-13 07:56:00,